RYR9758 LOWW-LIRI

Flight info

Callsign RYR9758
Flight time 1h 17m
Altitude 36000
Route STEIN DCT NOHAT DCT KOPRY DCT UNIPA DCT KATTI DCT MOLUX DCT BEDPI M725 SOR
Aircraft A320/M-SDE3FGHIRWY/LB1

Departure

Time 2026-04-20 13:26
Airport Vienna International Airport (LOWW)

Arrival

Time 2026-04-20 14:44
Airport Salerno Costa d'Amalfi Airport (LIRI)
Time Latitude Longitude Altitude Speed Heading
2026-04-20 13:09 48.12018 16.55609 611 ft 0 kts 116°
2026-04-20 13:17 48.12019 16.55606 611 ft 1 kts 116°
2026-04-20 13:17 48.12027 16.55582 624 ft 3 kts 121°
2026-04-20 13:17 48.12038 16.55557 624 ft 3 kts 136°
2026-04-20 13:17 48.12053 16.55542 621 ft 3 kts 177°
2026-04-20 13:18 48.12062 16.55543 621 ft 0 kts 205°
2026-04-20 13:21 48.12042 16.55529 624 ft 7 kts 205°
2026-04-20 13:21 48.11998 16.55498 619 ft 7 kts 205°
2026-04-20 13:21 48.11945 16.55460 611 ft 9 kts 205°
2026-04-20 13:21 48.11889 16.55435 611 ft 9 kts 188°
2026-04-20 13:22 48.11816 16.55441 614 ft 13 kts 150°
2026-04-20 13:22 48.11759 16.55585 617 ft 19 kts 116°
2026-04-20 13:22 48.11695 16.55784 613 ft 23 kts 115°
2026-04-20 13:22 48.11621 16.56015 617 ft 25 kts 115°
2026-04-20 13:23 48.11542 16.56261 621 ft 27 kts 116°
2026-04-20 13:23 48.11457 16.56518 613 ft 28 kts 116°
2026-04-20 13:23 48.11388 16.56730 613 ft 19 kts 116°
2026-04-20 13:23 48.11330 16.56906 611 ft 19 kts 116°
2026-04-20 13:24 48.11269 16.57094 622 ft 21 kts 116°
2026-04-20 13:24 48.11227 16.57209 622 ft 11 kts 129°
2026-04-20 13:24 48.11165 16.57221 614 ft 9 kts 200°
2026-04-20 13:24 48.11109 16.57182 616 ft 10 kts 205°
2026-04-20 13:25 48.11064 16.57115 610 ft 9 kts 255°
2026-04-20 13:25 48.11077 16.57037 617 ft 7 kts 296°
2026-04-20 13:25 48.11107 16.56946 624 ft 21 kts 296°
2026-04-20 13:25 48.11283 16.56401 615 ft 93 kts 295°
2026-04-20 13:26 48.11657 16.55255 615 ft 149 kts 296°
2026-04-20 13:26 48.12137 16.53712 961 ft 169 kts 294°
2026-04-20 13:26 48.12088 16.51946 1708 ft 181 kts 246°
2026-04-20 13:26 48.11186 16.50537 2288 ft 198 kts 224°
2026-04-20 13:27 48.09970 16.49290 2638 ft 228 kts 210°
2026-04-20 13:27 48.08312 16.48862 3080 ft 261 kts 180°
2026-04-20 13:27 48.06448 16.49127 3798 ft 273 kts 176°
2026-04-20 13:27 48.04537 16.49464 4725 ft 279 kts 176°
2026-04-20 13:28 48.02597 16.49825 5648 ft 283 kts 176°
2026-04-20 13:28 48.00636 16.50190 6576 ft 285 kts 177°
2026-04-20 13:28 47.98660 16.50547 7474 ft 287 kts 178°
2026-04-20 13:28 47.96671 16.50899 8400 ft 289 kts 178°
2026-04-20 13:29 47.94670 16.51243 9351 ft 290 kts 178°
2026-04-20 13:29 47.92688 16.51579 10193 ft 294 kts 179°
2026-04-20 13:29 47.90571 16.51927 10495 ft 318 kts 178°
2026-04-20 13:29 47.88302 16.52298 10870 ft 336 kts 178°
2026-04-20 13:30 47.85952 16.52695 11531 ft 343 kts 178°
2026-04-20 13:30 47.83565 16.53103 12248 ft 348 kts 178°
2026-04-20 13:30 47.81144 16.53518 12986 ft 353 kts 179°
2026-04-20 13:30 47.78690 16.53939 13724 ft 357 kts 179°
2026-04-20 13:31 47.76207 16.54399 14380 ft 362 kts 177°
2026-04-20 13:31 47.73702 16.55010 15066 ft 367 kts 175°
2026-04-20 13:31 47.71185 16.55724 15758 ft 370 kts 174°
2026-04-20 13:31 47.68652 16.56484 16432 ft 373 kts 174°
2026-04-20 13:32 47.66099 16.57254 17105 ft 375 kts 175°
2026-04-20 13:32 47.63527 16.58020 17741 ft 378 kts 175°
2026-04-20 13:32 47.60935 16.58781 18390 ft 381 kts 175°
2026-04-20 13:32 47.58321 16.59530 18947 ft 384 kts 176°
2026-04-20 13:33 47.55682 16.60269 19483 ft 388 kts 176°
2026-04-20 13:33 47.53015 16.61009 20036 ft 392 kts 176°
2026-04-20 13:33 47.50323 16.61756 20587 ft 396 kts 176°
2026-04-20 13:33 47.47600 16.62513 21136 ft 400 kts 176°
2026-04-20 13:34 47.44851 16.63272 21676 ft 404 kts 176°
2026-04-20 13:34 47.42077 16.64036 22180 ft 407 kts 177°
2026-04-20 13:34 47.39280 16.64815 22715 ft 411 kts 177°
2026-04-20 13:34 47.36462 16.65608 23228 ft 414 kts 177°
2026-04-20 13:35 47.33618 16.66407 23701 ft 418 kts 177°
2026-04-20 13:35 47.30752 16.67209 24094 ft 421 kts 178°
2026-04-20 13:35 47.27857 16.68014 24471 ft 425 kts 178°
2026-04-20 13:35 47.24939 16.68822 24840 ft 429 kts 178°
2026-04-20 13:36 47.21995 16.69636 25206 ft 432 kts 178°
2026-04-20 13:36 47.19025 16.70454 25490 ft 437 kts 178°
2026-04-20 13:36 47.16028 16.71281 25839 ft 441 kts 178°
2026-04-20 13:36 47.13000 16.72119 26171 ft 444 kts 178°
2026-04-20 13:37 47.09950 16.72965 26507 ft 448 kts 178°
2026-04-20 13:37 47.06873 16.73815 26842 ft 452 kts 179°
2026-04-20 13:37 47.03774 16.74670 27171 ft 455 kts 179°
2026-04-20 13:37 47.00649 16.75528 27496 ft 459 kts 179°
2026-04-20 13:38 46.97503 16.76385 27764 ft 462 kts 179°
2026-04-20 13:38 46.94325 16.77251 28076 ft 466 kts 179°
2026-04-20 13:38 46.91124 16.78125 28404 ft 470 kts 179°
2026-04-20 13:38 46.87899 16.79006 28711 ft 473 kts 179°
2026-04-20 13:39 46.84648 16.79898 28992 ft 477 kts 179°
2026-04-20 13:39 46.81378 16.80796 29277 ft 480 kts 179°
2026-04-20 13:39 46.78128 16.81688 29568 ft 483 kts 180°
2026-04-20 13:39 46.74815 16.82593 29751 ft 486 kts 179°
2026-04-20 13:40 46.71476 16.83504 30021 ft 490 kts 179°
2026-04-20 13:40 46.68115 16.84416 30229 ft 492 kts 179°
2026-04-20 13:40 46.64738 16.85326 30474 ft 495 kts 179°
2026-04-20 13:40 46.61351 16.86236 30716 ft 496 kts 179°
2026-04-20 13:41 46.57945 16.87152 30947 ft 498 kts 179°
2026-04-20 13:41 46.54536 16.88074 31167 ft 499 kts 179°
2026-04-20 13:41 46.51120 16.89001 31422 ft 499 kts 178°
2026-04-20 13:41 46.47707 16.89929 31737 ft 499 kts 178°
2026-04-20 13:42 46.44297 16.90854 32043 ft 498 kts 178°
2026-04-20 13:42 46.37492 16.92684 32655 ft 497 kts 178°
2026-04-20 13:42 46.34091 16.93592 32964 ft 496 kts 178°
2026-04-20 13:43 46.30697 16.94498 33230 ft 496 kts 178°
2026-04-20 13:43 46.27307 16.95386 33555 ft 493 kts 180°
2026-04-20 13:43 46.23939 16.95801 33857 ft 481 kts 189°
2026-04-20 13:43 46.20642 16.95522 34154 ft 468 kts 198°
2026-04-20 13:44 46.17438 16.94798 34409 ft 466 kts 199°
2026-04-20 13:44 46.14237 16.94068 34668 ft 465 kts 198°
2026-04-20 13:44 46.11043 16.93347 34888 ft 465 kts 198°
2026-04-20 13:44 46.07846 16.92632 35140 ft 464 kts 198°
2026-04-20 13:45 46.04656 16.91922 35392 ft 464 kts 197°
2026-04-20 13:45 46.01466 16.91210 35637 ft 463 kts 197°
2026-04-20 13:45 45.98287 16.90500 35871 ft 462 kts 197°
2026-04-20 13:45 45.95110 16.89789 36024 ft 462 kts 197°
2026-04-20 13:46 45.88776 16.88373 36060 ft 459 kts 196°
2026-04-20 13:46 45.82467 16.86966 36061 ft 459 kts 196°
2026-04-20 13:47 45.76160 16.85565 36059 ft 458 kts 197°
2026-04-20 13:47 45.69899 16.84171 36043 ft 458 kts 196°
2026-04-20 13:48 45.63604 16.82783 36059 ft 458 kts 196°
2026-04-20 13:48 45.57313 16.81397 36059 ft 457 kts 196°
2026-04-20 13:49 45.52085 16.80244 36058 ft 457 kts 196°
2026-04-20 13:49 45.45797 16.78856 36055 ft 457 kts 196°
2026-04-20 13:50 45.39507 16.77473 36048 ft 457 kts 196°
2026-04-20 13:50 45.33221 16.76099 36046 ft 457 kts 196°
2026-04-20 13:51 45.26930 16.74726 36020 ft 457 kts 196°
2026-04-20 13:51 45.20641 16.73365 36019 ft 457 kts 196°
2026-04-20 13:52 45.14346 16.72000 36020 ft 457 kts 196°
2026-04-20 13:52 45.08059 16.70630 36004 ft 458 kts 196°
2026-04-20 13:53 45.01760 16.69260 36015 ft 458 kts 196°
2026-04-20 13:53 44.95456 16.67904 36012 ft 459 kts 196°
2026-04-20 13:54 44.89141 16.66546 35988 ft 459 kts 195°
2026-04-20 13:54 44.82825 16.65188 35990 ft 459 kts 195°
2026-04-20 13:55 44.76506 16.63837 35992 ft 460 kts 195°
2026-04-20 13:55 44.70181 16.62485 35972 ft 459 kts 195°
2026-04-20 13:56 44.63862 16.61132 35987 ft 459 kts 195°
2026-04-20 13:56 44.57541 16.59786 35992 ft 459 kts 195°
2026-04-20 13:57 44.51228 16.58442 35984 ft 459 kts 195°
2026-04-20 13:57 44.44918 16.57107 35986 ft 458 kts 195°
2026-04-20 13:58 44.38619 16.55776 35990 ft 458 kts 195°
2026-04-20 13:58 44.32322 16.54444 35982 ft 457 kts 195°
2026-04-20 13:59 44.26035 16.53117 35993 ft 456 kts 195°
2026-04-20 13:59 44.19755 16.51804 35994 ft 456 kts 195°
2026-04-20 14:00 44.13479 16.50489 35977 ft 456 kts 195°
2026-04-20 14:00 44.07214 16.49171 35987 ft 455 kts 195°
2026-04-20 14:01 44.00959 16.47816 35992 ft 454 kts 197°
2026-04-20 14:01 43.94788 16.46076 35982 ft 451 kts 199°
2026-04-20 14:02 43.88663 16.44154 35981 ft 451 kts 199°
2026-04-20 14:02 43.82532 16.42295 35985 ft 451 kts 198°
2026-04-20 14:03 43.76422 16.40531 35960 ft 452 kts 198°
2026-04-20 14:03 43.70225 16.38767 35964 ft 452 kts 198°
2026-04-20 14:04 43.64073 16.36997 35969 ft 452 kts 198°
2026-04-20 14:04 43.57922 16.35215 35964 ft 452 kts 198°
2026-04-20 14:05 43.51809 16.33454 35966 ft 451 kts 198°
2026-04-20 14:05 43.45668 16.31689 35970 ft 451 kts 198°
2026-04-20 14:06 43.39525 16.29928 35956 ft 451 kts 198°
2026-04-20 14:06 43.33386 16.28171 35964 ft 450 kts 198°
2026-04-20 14:07 43.27251 16.26416 35970 ft 450 kts 198°
2026-04-20 14:07 43.21115 16.24666 35964 ft 450 kts 197°
2026-04-20 14:08 43.14978 16.22921 35970 ft 450 kts 197°
2026-04-20 14:08 43.08848 16.21187 35976 ft 450 kts 197°
2026-04-20 14:09 43.02714 16.19456 35964 ft 450 kts 197°
2026-04-20 14:09 42.96580 16.17731 35971 ft 450 kts 197°
2026-04-20 14:10 42.90455 16.15997 35971 ft 450 kts 197°
2026-04-20 14:10 42.84325 16.14273 35958 ft 450 kts 197°
2026-04-20 14:11 42.78200 16.12555 35964 ft 450 kts 197°
2026-04-20 14:11 42.72068 16.10837 35969 ft 450 kts 197°
2026-04-20 14:12 42.65941 16.09118 35963 ft 450 kts 197°
2026-04-20 14:12 42.59809 16.07403 35968 ft 450 kts 197°
2026-04-20 14:13 42.53701 16.05607 35966 ft 446 kts 202°
2026-04-20 14:13 42.48235 16.02122 35943 ft 432 kts 220°
2026-04-20 14:14 42.43506 15.97182 35950 ft 429 kts 224°
2026-04-20 14:14 42.38799 15.92212 35952 ft 429 kts 223°
2026-04-20 14:15 42.34085 15.87253 35955 ft 429 kts 223°
2026-04-20 14:15 42.29370 15.82300 35942 ft 429 kts 223°
2026-04-20 14:16 42.24650 15.77352 35947 ft 429 kts 223°
2026-04-20 14:16 42.19933 15.72410 35951 ft 429 kts 223°
2026-04-20 14:17 42.15212 15.67471 35969 ft 429 kts 223°
2026-04-20 14:17 42.10489 15.62545 35953 ft 430 kts 223°
2026-04-20 14:18 42.05757 15.57628 35968 ft 430 kts 223°
2026-04-20 14:18 42.01025 15.52718 35974 ft 430 kts 223°
2026-04-20 14:19 41.96287 15.47805 35951 ft 430 kts 223°
2026-04-20 14:19 41.91551 15.42893 35953 ft 430 kts 223°
2026-04-20 14:20 41.86805 15.37989 35955 ft 431 kts 223°
2026-04-20 14:20 41.82047 15.33097 35948 ft 431 kts 223°
2026-04-20 14:21 41.77324 15.28239 35934 ft 431 kts 223°
2026-04-20 14:21 41.72565 15.23343 35941 ft 432 kts 223°
2026-04-20 14:22 41.67801 15.18445 35947 ft 432 kts 223°
2026-04-20 14:22 41.63028 15.13560 35949 ft 432 kts 223°
2026-04-20 14:23 41.58246 15.08679 35949 ft 433 kts 223°
2026-04-20 14:23 41.53441 15.03791 35207 ft 439 kts 223°
2026-04-20 14:24 41.51000 15.01307 34335 ft 443 kts 223°
2026-04-20 14:24 41.48542 14.98808 33416 ft 445 kts 223°
2026-04-20 14:24 41.46083 14.96305 32663 ft 443 kts 223°
2026-04-20 14:24 41.43648 14.93836 32103 ft 437 kts 223°
2026-04-20 14:25 41.41239 14.91399 31500 ft 432 kts 224°
2026-04-20 14:25 41.38859 14.88997 30943 ft 428 kts 224°
2026-04-20 14:25 41.36492 14.86603 30364 ft 425 kts 224°
2026-04-20 14:25 41.34149 14.84234 29756 ft 422 kts 224°
2026-04-20 14:26 41.31825 14.81886 29193 ft 418 kts 223°
2026-04-20 14:26 41.29357 14.79826 28615 ft 421 kts 213°
2026-04-20 14:26 41.26740 14.78100 28055 ft 418 kts 213°
2026-04-20 14:26 41.24145 14.76397 27480 ft 414 kts 212°
2026-04-20 14:27 41.21575 14.74709 26964 ft 410 kts 213°
2026-04-20 14:27 41.19028 14.73034 26426 ft 407 kts 213°
2026-04-20 14:27 41.16505 14.71372 25922 ft 403 kts 213°
2026-04-20 14:27 41.14004 14.69728 25409 ft 400 kts 212°
2026-04-20 14:28 41.11519 14.68099 24923 ft 397 kts 212°
2026-04-20 14:28 41.09056 14.66486 24436 ft 394 kts 212°
2026-04-20 14:28 41.06606 14.64881 23966 ft 391 kts 212°
2026-04-20 14:28 41.04175 14.63289 23463 ft 389 kts 212°
2026-04-20 14:29 41.01762 14.61711 22967 ft 385 kts 212°
2026-04-20 14:29 40.99374 14.60152 22502 ft 381 kts 212°
2026-04-20 14:29 40.97037 14.58630 22045 ft 378 kts 212°
2026-04-20 14:29 40.94686 14.57103 21570 ft 375 kts 212°
2026-04-20 14:30 40.92354 14.55587 21098 ft 373 kts 212°
2026-04-20 14:30 40.90036 14.54080 20622 ft 370 kts 212°
2026-04-20 14:30 40.87730 14.52582 20134 ft 368 kts 212°
2026-04-20 14:30 40.85435 14.51092 19650 ft 366 kts 212°
2026-04-20 14:31 40.83155 14.49610 19179 ft 364 kts 211°
2026-04-20 14:31 40.80884 14.48134 18677 ft 363 kts 211°
2026-04-20 14:31 40.78620 14.46664 18179 ft 362 kts 211°
2026-04-20 14:31 40.76367 14.45205 17679 ft 360 kts 211°
2026-04-20 14:32 40.74131 14.43760 17213 ft 357 kts 211°
2026-04-20 14:32 40.71913 14.42327 16753 ft 354 kts 211°
2026-04-20 14:32 40.69707 14.40906 16295 ft 352 kts 211°
2026-04-20 14:32 40.67518 14.39495 15842 ft 350 kts 210°
2026-04-20 14:33 40.65339 14.38091 15382 ft 348 kts 210°
2026-04-20 14:33 40.63171 14.36690 14941 ft 346 kts 210°
2026-04-20 14:33 40.61021 14.35298 14496 ft 345 kts 210°
2026-04-20 14:33 40.58849 14.33957 14042 ft 346 kts 204°
2026-04-20 14:34 40.56515 14.33135 13550 ft 350 kts 192°
2026-04-20 14:34 40.54117 14.32666 13059 ft 347 kts 192°
2026-04-20 14:34 40.51736 14.32194 12582 ft 345 kts 192°
2026-04-20 14:34 40.49371 14.31726 12103 ft 343 kts 190°
2026-04-20 14:35 40.47034 14.31770 11895 ft 328 kts 173°
2026-04-20 14:35 40.44906 14.32651 11476 ft 319 kts 155°
2026-04-20 14:35 40.43133 14.34350 10882 ft 316 kts 134°
2026-04-20 14:35 40.41895 14.36702 10243 ft 313 kts 114°
2026-04-20 14:36 40.41248 14.39412 9547 ft 311 kts 103°
2026-04-20 14:36 40.40910 14.41231 9059 ft 309 kts 103°
2026-04-20 14:36 40.40393 14.43959 8358 ft 307 kts 103°
2026-04-20 14:36 40.39871 14.46681 7918 ft 306 kts 104°
2026-04-20 14:37 40.39355 14.49353 7398 ft 299 kts 104°
2026-04-20 14:37 40.39113 14.52853 6925 ft 283 kts 81°
2026-04-20 14:37 40.39382 14.54519 6695 ft 271 kts 69°
2026-04-20 14:37 40.40180 14.56691 6338 ft 260 kts 52°
2026-04-20 14:38 40.41297 14.58494 5983 ft 254 kts 46°
2026-04-20 14:38 40.42443 14.60260 5641 ft 254 kts 46°
2026-04-20 14:38 40.43578 14.62024 5311 ft 252 kts 46°
2026-04-20 14:38 40.44705 14.63784 4989 ft 251 kts 47°
2026-04-20 14:39 40.45827 14.65532 4661 ft 250 kts 47°
2026-04-20 14:39 40.46941 14.67269 4335 ft 248 kts 47°
2026-04-20 14:39 40.48051 14.69000 4022 ft 247 kts 47°
2026-04-20 14:39 40.49158 14.70728 3700 ft 246 kts 47°
2026-04-20 14:40 40.50249 14.72432 3390 ft 239 kts 47°
2026-04-20 14:40 40.51297 14.74071 3076 ft 230 kts 47°
2026-04-20 14:40 40.52306 14.75650 2784 ft 221 kts 48°
2026-04-20 14:40 40.53281 14.77175 2539 ft 215 kts 49°
2026-04-20 14:41 40.54230 14.78658 2230 ft 209 kts 49°
2026-04-20 14:41 40.55146 14.80088 1951 ft 196 kts 50°
2026-04-20 14:41 40.55971 14.81377 1735 ft 173 kts 50°
2026-04-20 14:41 40.56708 14.82530 1490 ft 157 kts 50°
2026-04-20 14:42 40.57391 14.83598 1298 ft 149 kts 50°
2026-04-20 14:42 40.58038 14.84635 1108 ft 145 kts 52°
2026-04-20 14:42 40.58663 14.85679 903 ft 145 kts 52°
2026-04-20 14:42 40.59286 14.86716 701 ft 144 kts 52°
2026-04-20 14:43 40.59913 14.87764 475 ft 148 kts 53°
2026-04-20 14:43 40.60535 14.88819 289 ft 149 kts 52°
2026-04-20 14:43 40.61173 14.89879 108 ft 146 kts 51°
2026-04-20 14:43 40.61703 14.90759 86 ft 84 kts 52°
2026-04-20 14:44 40.61942 14.91166 89 ft 41 kts 52°
2026-04-20 14:44 40.62075 14.91392 87 ft 24 kts 55°
2026-04-20 14:44 40.62122 14.91592 85 ft 23 kts 82°
2026-04-20 14:44 40.62133 14.91696 85 ft 9 kts 82°
2026-04-20 14:45 40.62130 14.91769 84 ft 8 kts 114°
2026-04-20 14:45 40.62094 14.91815 84 ft 7 kts 141°
2026-04-20 14:45 40.62059 14.91851 84 ft 6 kts 141°
2026-04-20 14:45 40.62041 14.91891 84 ft 5 kts 92°
2026-04-20 14:46 40.62052 14.91927 86 ft 4 kts 59°
2026-04-20 14:46 40.62071 14.91960 85 ft 7 kts 52°
2026-04-20 14:46 40.62086 14.92008 85 ft 5 kts 108°
2026-04-20 14:46 40.62075 14.92031 88 ft 2 kts 130°
2026-04-20 14:47 40.62066 14.92041 88 ft 1 kts 136°
2026-04-20 14:47 40.62063 14.92045 89 ft 0 kts 137°